Location: Unspecified
(22.6800°N, 112.2000°E)
Time: 06:46:10
(UTC+08:00)

S-56A Canister/Altair - Pass Details

Date: 27 July 2021
Orbit: 632 x 2500 km, 38.9° (Epoch: 26 September)

Event Time Altitude Azimuth Distance (km) Brightness Sun altitude
Rises 17:55:19 0° 271° (W) 5,945 13.6 16.7°
Reaches altitude 10° 17:59:24 10° 277° (W) 5,061 14.2 15.8°
Maximum altitude 18:13:30 44° 346° (NNW) 3,117 11.1 12.6°
Drops below altitude 10° 18:26:23 10° 55° (NE) 4,641 11.2 9.8°
Sets 18:29:59 0° 62° (ENE) 5,429 11.4 9.0°
